カタログに戻る

SLS DEB

運用中UNKNOWN
NORAD 55904·DEBRIS·🇺🇸 United States

打ち上げ Nov 16, 2022 から Cape Canaveral Space Force Station

Loading…

次のパス (今後24時間)

TLE

最新Source: Space-Track

元期: Aug 25, 2026, 14:38 UTC

1 55904U 22156D   26237.60986065  .00160405  00000-0  15251-1 0  9990
2 55904  30.3768   3.9048 1534094 198.4117 155.4353 12.19438074147921

AllMySatでSLS DEBをリアルタイム追跡

Download on the App Store